User: anonymous   Login
Location: Whitehorse
(60.7170°N, 135.0500°W)
Time: 04:55:20
(UTC-07:00)
Language:

Cosmos 2219 Rocket - Orbit

View from above orbital plane
View from above orbital plane
View from above satellite
View from above satellite

Ground track
Ground track

The orbit data is extracted from the following two-line orbital elements,

1 22220U 92076B   17234.57877083 -.00000222 +00000-0 -87541-4 0  9991
2 22220 070.9993 279.4996 0012712 182.5397 290.2871 14.16418868279847
Epoch (UTC): 22 August 2017 13:53:25
Eccentricity: 0.0012712
inclination: 70.9993°
perigee height: 828 km
apogee height: 846 km
right ascension of ascending node: 279.4996°
argument of perigee: 182.5397°
revolutions per day: 14.16418868
mean anomaly at epoch: 290.2871°
orbit number at epoch: 27984

The dashed part of the orbit path shows where the satellite is in the earth's shadow,  

DLR